Location: Unspecified
(45.3712°N, 0.6436°E)
Time: 04:27:42
(UTC+02:00)

Envisat - Visible Passes

Search period start: 22 May 2018 00:00
Search period end: 01 June 2018 00:00
Orbit: 764 x 766 km, 98.2° (Epoch: 21 May)

Date Brightness Start Highest point End Pass type
(mag) Time Alt. Az. Time Alt. Az. Time Alt. Az.
22 May 4.7 21:57:10 10° SSW 22:01:46 34° W 22:06:25 10° NNW visible
24 May 5.4 22:23:49 10° SW 22:27:34 21° W 22:31:21 10° NW visible
26 May 5.8 22:51:38 10° WSW 22:53:28 12° W 22:55:18 10° WNW visible
27 May 5.1 22:12:07 10° SSW 22:16:18 26° W 22:20:31 10° NW visible
29 May 5.6 22:39:17 10° WSW 22:42:10 15° W 22:45:04 10° NW visible
